GSAT0217 (GALILEO 21) (43057 NORAD) Tracking and Keplerian Element Data

This shows tracking and keplerian element data for the satellite.

Feedback or suggestion? Click here.




ElementValue
Catalog43057
NameGSAT0217 (GALILEO 21)
Epoch Orbit1434
Epoch Day93.38182096
Epoch Year2020
RAAN283.882
Inclination56.3266
Eccentricity0.0002143
Argument of Perigee317.7344
Mean Anonmoly42.2585
Mean Motion1.70474053
Decay Rate3E-07
L11 43057U 17079C 20093.38182096 .00000030 00000-0 00000+0 0 9996
L22 43057 56.3266 283.8820 0002143 317.7344 42.2585 1.70474053 14348

Live tracking and technical data element details for GSAT0217 (GALILEO 21) (NORAD 43057). GSAT0217 (GALILEO 21) can be tracked NOW for your location showing map with azimuth and elevation plus other details from your city location.

Track the satellite on the map from your city or location and see movement details for azimuth, elevation, latitude, longitude, range, height, and movement on the map or in text.







IsCatalogInMostPopularTable: catalog: 43057, numindb: 405
Update: records affected: 1



GetName: 43057 GSAT0217 (GALILEO 21)

Hit Count: updated at: Thu, 09 Apr 2020 16:59:17 GMT